| time (UTC) | temp F | wind direction | speed knots | gust knots | rain 1hr in | rain 24hr in | rain mn in | humidity % | barometer mb |
| 20260510110431 | 37 | 223 | 2.6 | 9.6 | 0.00 | 0.00 | 0.00 | 98 | 965.5 |
| 20260510105901 | 38 | 165 | 2.6 | 7.0 | 0.00 | 0.00 | 0.00 | 98 | 965.7 |
| 20260510105331 | 38 | 209 | 2.6 | 6.1 | 0.00 | 0.00 | 0.00 | 97 | 965.7 |
| 20260510104831 | 38 | 235 | 2.6 | 6.1 | 0.00 | 0.00 | 0.00 | 99 | 965.8 |
| 20260510104331 | 38 | 239 | 3.5 | 6.1 | 0.00 | 0.00 | 0.00 | 98 | 965.8 |
| 20260510103831 | 38 | 237 | 3.5 | 6.1 | 0.00 | 0.00 | 0.00 | 99 | 965.8 |
| 20260510103331 | 38 | 246 | 3.5 | 7.0 | 0.00 | 0.00 | 0.00 | 99 | 965.7 |
| 20260510102831 | 38 | 252 | 3.5 | 7.8 | 0.00 | 0.00 | 0.00 | 98 | 965.8 |
| 20260510102301 | 38 | 288 | 3.5 | 8.7 | 0.00 | 0.00 | 0.00 | 98 | 965.8 |
| 20260510101801 | 38 | 281 | 3.5 | 8.7 | 0.00 | 0.00 | 0.00 | 98 | 965.8 |
| 20260510101301 | 38 | 260 | 3.5 | 7.0 | 0.00 | 0.00 | 0.00 | 98 | 965.9 |
| 20260510100801 | 38 | 257 | 3.5 | 7.8 | 0.00 | 0.00 | 0.00 | 97 | 965.8 |
| 20260510100300 | 38 | 250 | 3.5 | 7.8 | 0.00 | 0.00 | 0.00 | 97 | 966.0 |
| 20260510095800 | 38 | 248 | 3.5 | 7.8 | 0.00 | 0.00 | 0.00 | 96 | 966.0 |
| 20260510095300 | 38 | 264 | 3.5 | 7.8 | 0.00 | 0.00 | 0.00 | 98 | 966.3 |
| 20260510094800 | 38 | 212 | 4.3 | 7.8 | 0.00 | 0.00 | 0.00 | 97 | 966.3 |
| 20260510094300 | 38 | 285 | 4.3 | 7.8 | 0.00 | 0.00 | 0.00 | 96 | 966.3 |
| 20260510093800 | 38 | 207 | 3.5 | 7.8 | 0.00 | 0.00 | 0.00 | 99 | 966.3 |
| 20260510093300 | 38 | 223 | 3.5 | 5.2 | 0.00 | 0.00 | 0.00 | 98 | 966.3 |
| 20260510092730 | 38 | 223 | 3.5 | 5.2 | 0.00 | 0.00 | 0.00 | 98 | 966.5 |
| 20260510092200 | 38 | 306 | 3.5 | 5.2 | 0.00 | 0.00 | 0.00 | 97 | 966.5 |
| 20260510091700 | 38 | 283 | 3.5 | 6.1 | 0.00 | 0.00 | 0.00 | 98 | 966.5 |
| 20260510091200 | 38 | 311 | 3.5 | 6.1 | 0.00 | 0.00 | 0.00 | 98 | 966.7 |
| 20260510090700 | 38 | 278 | 2.6 | 5.2 | 0.00 | 0.00 | 0.00 | 98 | 966.7 |
| 20260510090200 | 38 | 316 | 2.6 | 6.1 | 0.00 | 0.00 | 0.00 | 98 | 966.7 |
| 20260510085700 | 38 | 295 | 2.6 | 7.0 | 0.00 | 0.00 | 0.00 | 98 | 966.8 |
| 20260510085200 | 38 | 293 | 2.6 | 7.0 | 0.00 | 0.00 | 0.00 | 99 | 966.8 |
| 20260510084630 | 38 | 270 | 3.5 | 7.8 | 0.00 | 0.00 | 0.00 | 98 | 966.8 |
| 20260510084100 | 38 | 287 | 2.6 | 7.8 | 0.00 | 0.00 | 0.00 | 97 | 967.0 |
| 20260510083600 | 38 | 306 | 2.6 | 5.2 | 0.00 | 0.00 | 0.00 | 98 | 966.9 |
| 20260510083100 | 38 | 304 | 2.6 | 5.2 | 0.00 | 0.00 | 0.00 | 99 | 967.1 |
| 20260510082600 | 38 | 327 | 2.6 | 4.3 | 0.00 | 0.00 | 0.00 | 98 | 967.2 |
| 20260510082100 | 38 | 285 | 2.6 | 4.3 | 0.00 | 0.00 | 0.00 | 99 | 967.2 |
| 20260510081600 | 37 | 316 | 2.6 | 5.2 | 0.00 | 0.00 | 0.00 | 10 | 967.3 |
| 20260510081030 | 37 | 294 | 2.6 | 5.2 | 0.00 | 0.00 | 0.00 | 10 | 967.4 |
| 20260510080530 | 37 | 281 | 2.6 | 5.2 | 0.00 | 0.00 | 0.00 | 10 | 967.4 |
| 20260510080030 | 36 | 294 | 2.6 | 5.2 | 0.00 | 0.00 | 0.00 | 10 | 967.5 |
| 20260510075500 | 36 | 277 | 2.6 | 5.2 | 0.00 | 0.00 | 0.00 | 10 | 967.7 |
| 20260510075000 | 36 | 273 | 2.6 | 6.1 | 0.00 | 0.00 | 0.00 | 10 | 967.6 |
| 20260510074500 | 36 | 252 | 2.6 | 7.0 | 0.00 | 0.00 | 0.00 | 10 | 967.7 |
| 20260510073930 | 35 | 311 | 2.6 | 7.0 | 0.00 | 0.00 | 0.00 | 10 | 967.6 |
| 20260510073430 | 35 | 255 | 2.6 | 5.2 | 0.00 | 0.00 | 0.00 | 10 | 967.7 |
| 20260510072930 | 35 | 246 | 2.6 | 5.2 | 0.00 | 0.00 | 0.00 | 10 | 967.8 |
| 20260510072400 | 35 | 253 | 2.6 | 5.2 | 0.00 | 0.00 | 0.00 | 10 | 967.9 |
| 20260510071900 | 35 | 269 | 2.6 | 5.2 | 0.00 | 0.00 | 0.00 | 10 | 967.8 |
| 20260510071400 | 34 | 246 | 2.6 | 6.1 | 0.00 | 0.00 | 0.00 | 10 | 968.1 |
| 20260510070900 | 34 | 250 | 2.6 | 6.1 | 0.00 | 0.00 | 0.00 | 10 | 968.2 |
| 20260510070400 | 34 | 239 | 2.6 | 6.1 | 0.00 | 0.00 | 0.00 | 10 | 968.2 |
| 20260510065830 | 34 | 241 | 2.6 | 5.2 | 0.00 | 0.00 | 0.00 | 10 | 968.2 |
| 20260510065330 | 34 | 235 | 2.6 | 5.2 | 0.00 | 0.00 | 0.00 | 10 | 968.2 |
| 20260510064800 | 34 | 212 | 2.6 | 6.1 | 0.00 | 0.00 | 0.00 | 10 | 968.3 |
| 20260510064300 | 34 | 243 | 1.7 | 6.1 | 0.00 | 0.00 | 0.00 | 10 | 968.3 |
| 20260510063759 | 35 | 220 | 1.7 | 6.1 | 0.00 | 0.00 | 0.00 | 10 | 968.3 |
| 20260510063259 | 35 | 258 | 1.7 | 5.2 | 0.00 | 0.00 | 0.00 | 10 | 968.4 |
| 20260510062729 | 35 | 169 | 2.6 | 6.1 | 0.00 | 0.00 | 0.00 | 10 | 968.4 |
| 20260510062229 | 35 | 257 | 3.5 | 7.0 | 0.00 | 0.00 | 0.00 | 10 | 968.4 |
| 20260510061729 | 35 | 211 | 4.3 | 8.7 | 0.00 | 0.00 | 0.00 | 10 | 968.4 |
| 20260510061229 | 36 | 198 | 4.3 | 8.7 | 0.00 | 0.00 | 0.00 | 10 | 968.2 |
| 20260510060659 | 36 | 224 | 4.3 | 8.7 | 0.00 | 0.00 | 0.00 | 10 | 968.3 |
| 20260510060159 | 37 | 229 | 4.3 | 8.7 | 0.00 | 0.00 | 0.00 | 10 | 968.2 |
| 20260510055659 | 37 | 260 | 4.3 | 7.8 | 0.00 | 0.00 | 0.00 | 10 | 968.3 |
| 20260510055159 | 37 | 234 | 4.3 | 8.7 | 0.00 | 0.00 | 0.00 | 10 | 968.3 |
| 20260510054659 | 37 | 265 | 4.3 | 8.7 | 0.00 | 0.00 | 0.00 | 10 | 968.2 |
| 20260510054159 | 37 | 259 | 4.3 | 8.7 | 0.00 | 0.00 | 0.00 | 10 | 968.2 |
| 20260510053659 | 37 | 288 | 4.3 | 7.8 | 0.00 | 0.00 | 0.00 | 10 | 968.2 |
| 20260510053159 | 37 | 265 | 4.3 | 7.8 | 0.00 | 0.00 | 0.00 | 10 | 968.3 |
| 20260510052659 | 37 | 283 | 4.3 | 7.8 | 0.00 | 0.00 | 0.00 | 10 | 968.4 |
| 20260510052159 | 37 | 263 | 4.3 | 7.8 | 0.00 | 0.00 | 0.00 | 10 | 968.3 |
| 20260510051629 | 37 | 291 | 4.3 | 7.8 | 0.00 | 0.00 | 0.00 | 10 | 968.3 |
| 20260510051129 | 37 | 258 | 3.5 | 7.8 | 0.00 | 0.00 | 0.00 | 10 | 968.3 |
| 20260510050629 | 37 | 258 | 3.5 | 6.1 | 0.00 | 0.00 | 0.00 | 10 | 968.4 |
| 20260510050129 | 37 | 286 | 3.5 | 6.1 | 0.00 | 0.00 | 0.00 | 10 | 968.7 |
| 20260510045629 | 37 | 264 | 3.5 | 6.1 | 0.00 | 0.00 | 0.00 | 10 | 968.6 |
| 20260510045129 | 37 | 257 | 4.3 | 7.8 | 0.00 | 0.00 | 0.00 | 10 | 968.6 |
| 20260510044629 | 37 | 264 | 4.3 | 7.8 | 0.00 | 0.00 | 0.00 | 10 | 968.6 |
| 20260510044059 | 37 | 260 | 4.3 | 7.0 | 0.00 | 0.00 | 0.00 | 10 | 968.4 |
| 20260510043559 | 37 | 274 | 4.3 | 7.0 | 0.00 | 0.00 | 0.00 | 10 | 968.3 |
| 20260510043059 | 38 | 237 | 4.3 | 7.0 | 0.00 | 0.00 | 0.00 | 10 | 968.5 |
| 20260510042559 | 38 | 279 | 4.3 | 7.0 | 0.00 | 0.00 | 0.00 | 10 | 968.5 |
| 20260510042059 | 38 | 256 | 4.3 | 6.1 | 0.00 | 0.00 | 0.00 | 10 | 968.4 |
| 20260510041559 | 38 | 268 | 3.5 | 6.1 | 0.00 | 0.00 | 0.00 | 10 | 968.5 |
| 20260510041059 | 38 | 249 | 3.5 | 6.1 | 0.00 | 0.00 | 0.00 | 10 | 968.5 |
| 20260510040559 | 38 | 265 | 3.5 | 6.1 | 0.00 | 0.00 | 0.00 | 10 | 968.6 |
| 20260510040059 | 38 | 247 | 2.6 | 6.1 | 0.00 | 0.00 | 0.00 | 10 | 968.6 |
| 20260510035559 | 38 | 265 | 1.7 | 5.2 | 0.00 | 0.00 | 0.00 | 10 | 968.6 |
| 20260510035059 | 38 | 269 | 1.7 | 3.5 | 0.00 | 0.00 | 0.00 | 10 | 968.6 |
| 20260510034559 | 38 | 263 | 1.7 | 5.2 | 0.00 | 0.00 | 0.00 | 10 | 968.6 |
| 20260510034059 | 38 | 294 | 3.5 | 5.2 | 0.00 | 0.00 | 0.00 | 10 | 968.5 |
| 20260510033558 | 38 | 15 | 3.5 | 5.2 | 0.00 | 0.00 | 0.00 | 10 | 968.7 |
| 20260510033058 | 38 | 19 | 2.6 | 7.8 | 0.00 | 0.00 | 0.00 | 10 | 968.7 |
| 20260510032528 | 38 | 335 | 2.6 | 7.8 | 0.00 | 0.00 | 0.00 | 10 | 968.7 |
| 20260510031958 | 38 | 15 | 3.5 | 7.8 | 0.00 | 0.00 | 0.00 | 10 | 968.7 |
| 20260510031458 | 38 | 314 | 2.6 | 7.8 | 0.00 | 0.00 | 0.00 | 10 | 968.8 |
| 20260510030958 | 38 | 18 | 2.6 | 8.7 | 0.00 | 0.00 | 0.00 | 10 | 968.8 |
| 20260510030458 | 38 | 305 | 3.5 | 8.7 | 0.00 | 0.00 | 0.00 | 10 | 968.9 |
| 20260510025928 | 38 | 278 | 3.5 | 7.0 | 0.00 | 0.00 | 0.00 | 10 | 968.9 |
| 20260510025358 | 38 | 288 | 2.6 | 7.0 | 0.00 | 0.00 | 0.00 | 10 | 968.9 |
| 20260510024828 | 38 | 305 | 3.5 | 7.0 | 0.00 | 0.00 | 0.00 | 10 | 969.1 |
| 20260510024328 | 38 | 262 | 4.3 | 7.0 | 0.00 | 0.00 | 0.00 | 10 | 969.2 |
| 20260510023828 | 38 | 249 | 4.3 | 7.8 | 0.00 | 0.00 | 0.00 | 10 | 969.2 |
| 20260510023258 | 38 | 265 | 4.3 | 7.8 | 0.00 | 0.00 | 0.00 | 10 | 969.2 |
| 20260510022758 | 38 | 241 | 4.3 | 7.8 | 0.00 | 0.00 | 0.00 | 10 | 969.3 |
| 20260510022258 | 39 | 295 | 4.3 | 7.8 | 0.00 | 0.00 | 0.00 | 10 | 969.3 |
| 20260510021728 | 39 | 256 | 4.3 | 7.8 | 0.00 | 0.00 | 0.00 | 10 | 969.4 |
| 20260510021158 | 39 | 252 | 4.3 | 7.8 | 0.00 | 0.00 | 0.00 | 10 | 969.5 |
| 20260510020658 | 39 | 278 | 4.3 | 7.8 | 0.00 | 0.00 | 0.00 | 10 | 969.4 |
| 20260510020158 | 39 | 291 | 3.5 | 7.8 | 0.00 | 0.00 | 0.00 | 10 | 969.4 |
| 20260510015658 | 39 | 262 | 3.5 | 7.8 | 0.00 | 0.00 | 0.00 | 10 | 969.6 |
| 20260510015128 | 39 | 288 | 4.3 | 7.0 | 0.00 | 0.00 | 0.00 | 10 | 969.7 |
| 20260510014628 | 39 | 225 | 4.3 | 7.0 | 0.00 | 0.00 | 0.00 | 10 | 969.7 |
| 20260510014128 | 39 | 256 | 4.3 | 7.8 | 0.00 | 0.00 | 0.00 | 10 | 969.7 |
| 20260510013558 | 40 | 223 | 4.3 | 7.8 | 0.00 | 0.00 | 0.00 | 10 | 969.9 |
| 20260510013058 | 40 | 251 | 3.5 | 6.1 | 0.00 | 0.00 | 0.00 | 10 | 969.8 |
| 20260510012558 | 40 | 221 | 3.5 | 6.1 | 0.00 | 0.00 | 0.00 | 10 | 969.7 |
| 20260510012058 | 40 | 235 | 3.5 | 6.1 | 0.00 | 0.00 | 0.00 | 10 | 969.6 |
| 20260510011558 | 40 | 251 | 2.6 | 6.1 | 0.00 | 0.00 | 0.00 | 10 | 969.8 |
| 20260510011028 | 41 | 259 | 2.6 | 5.2 | 0.00 | 0.00 | 0.00 | 10 | 969.9 |
| 20260510010528 | 41 | 249 | 1.7 | 4.3 | 0.00 | 0.00 | 0.00 | 10 | 969.9 |
| 20260510010028 | 41 | 262 | 1.7 | 4.3 | 0.00 | 0.00 | 0.00 | 10 | 970.0 |
| 20260510005458 | 41 | 184 | 1.7 | 4.3 | 0.00 | 0.00 | 0.00 | 10 | 969.9 |
| 20260510004958 | 41 | 51 | 2.6 | 4.3 | 0.00 | 0.00 | 0.00 | 10 | 970.0 |
| 20260510004428 | 41 | 22 | 3.5 | 5.2 | 0.00 | 0.00 | 0.00 | 10 | 970.0 |
| 20260510003928 | 41 | 24 | 2.6 | 5.2 | 0.00 | 0.00 | 0.00 | 99 | 970.0 |
| 20260510003428 | 41 | 40 | 1.7 | 3.5 | 0.00 | 0.00 | 0.00 | 98 | 970.1 |
| 20260510002928 | 42 | 24 | 0.9 | 3.5 | 0.00 | 0.00 | 0.00 | 98 | 970.2 |
| 20260510002428 | 42 | 98 | 0.9 | 3.5 | 0.00 | 0.00 | 0.00 | 98 | 970.1 |
| 20260510001928 | 42 | 238 | 0.9 | 5.2 | 0.00 | 0.00 | 0.00 | 98 | 970.0 |
| 20260510001428 | 42 | 282 | 1.7 | 6.1 | 0.00 | 0.00 | 0.00 | 98 | 969.8 |
| 20260510000928 | 42 | 189 | 2.6 | 7.0 | 0.00 | 0.00 | 0.00 | 99 | 969.9 |
| 20260510000358 | 42 | 203 | 3.5 | 9.6 | 0.00 | 0.00 | 0.00 | 98 | 969.9 |
| 20260509235858 | 42 | 195 | 2.6 | 9.6 | 0.00 | 0.00 | 0.00 | 98 | 970.0 |
| 20260509235358 | 42 | 222 | 2.6 | 9.6 | 0.00 | 0.00 | 0.00 | 97 | 970.0 |
| 20260509234858 | 42 | 202 | 2.6 | 10.4 | 0.00 | 0.00 | 0.00 | 97 | 970.0 |
| 20260509234357 | 43 | 149 | 3.5 | 10.4 | 0.00 | 0.00 | 0.00 | 96 | 970.0 |
| 20260509233857 | 43 | 208 | 3.5 | 11.3 | 0.00 | 0.00 | 0.00 | 95 | 970.0 |
| 20260509233357 | 43 | 182 | 4.3 | 11.3 | 0.00 | 0.00 | 0.00 | 92 | 969.9 |
| 20260509232857 | 44 | 182 | 3.5 | 10.4 | 0.00 | 0.00 | 0.00 | 88 | 969.9 |
| 20260509232357 | 45 | 187 | 3.5 | 10.4 | 0.00 | 0.00 | 0.00 | 83 | 970.0 |
| 20260509231857 | 46 | 91 | 2.6 | 10.4 | 0.00 | 0.00 | 0.00 | 79 | 970.0 |
| 20260509231357 | 46 | 144 | 2.6 | 10.4 | 0.00 | 0.00 | 0.00 | 74 | 969.8 |
| 20260509230857 | 47 | 193 | 3.5 | 7.8 | 0.00 | 0.00 | 0.00 | 71 | 969.7 |
| 20260509230357 | 47 | 137 | 3.5 | 8.7 | 0.00 | 0.00 | 0.00 | 70 | 969.7 |
| 20260509225857 | 47 | 222 | 3.5 | 8.7 | 0.00 | 0.00 | 0.00 | 69 | 969.8 |
| 20260509225357 | 47 | 174 | 4.3 | 7.8 | 0.00 | 0.00 | 0.00 | 68 | 969.8 |
| 20260509224858 | 47 | 177 | 3.5 | 7.8 | 0.00 | 0.00 | 0.00 | 68 | 969.8 |
| 20260509224357 | 47 | 234 | 3.5 | 7.8 | 0.00 | 0.00 | 0.00 | 67 | 969.8 |
| 20260509223857 | 47 | 141 | 3.5 | 7.8 | 0.00 | 0.00 | 0.00 | 66 | 969.9 |
| 20260509223328 | 48 | 212 | 3.5 | 8.7 | 0.00 | 0.00 | 0.00 | 66 | 969.8 |
| 20260509222827 | 48 | 206 | 3.5 | 8.7 | 0.00 | 0.00 | 0.00 | 65 | 969.8 |
| 20260509222327 | 48 | 266 | 3.5 | 9.6 | 0.00 | 0.00 | 0.00 | 65 | 969.8 |
| 20260509221827 | 48 | 239 | 3.5 | 9.6 | 0.00 | 0.00 | 0.00 | 64 | 969.8 |
| 20260509221327 | 48 | 256 | 3.5 | 9.6 | 0.00 | 0.00 | 0.00 | 63 | 969.8 |
| 20260509220827 | 48 | 266 | 3.5 | 11.3 | 0.00 | 0.00 | 0.00 | 63 | 969.8 |
| 20260509220327 | 48 | 271 | 3.5 | 11.3 | 0.00 | 0.00 | 0.00 | 62 | 969.9 |
| 20260509215827 | 48 | 83 | 3.5 | 11.3 | 0.00 | 0.00 | 0.00 | 61 | 969.9 |
| 20260509215257 | 48 | 195 | 3.5 | 7.0 | 0.00 | 0.00 | 0.00 | 61 | 969.9 |
| 20260509214727 | 48 | 169 | 3.5 | 7.8 | 0.00 | 0.00 | 0.00 | 60 | 970.0 |
| 20260509214227 | 49 | 194 | 2.6 | 8.7 | 0.00 | 0.00 | 0.00 | 59 | 970.0 |
| 20260509213727 | 49 | 252 | 3.5 | 8.7 | 0.00 | 0.00 | 0.00 | 59 | 970.2 |
| 20260509213227 | 49 | 246 | 4.3 | 13.0 | 0.00 | 0.00 | 0.00 | 58 | 970.2 |
| 20260509212727 | 49 | 280 | 4.3 | 13.0 | 0.00 | 0.00 | 0.00 | 57 | 970.3 |
| 20260509212227 | 49 | 248 | 3.5 | 13.0 | 0.00 | 0.00 | 0.00 | 56 | 970.2 |
| 20260509211657 | 49 | 21 | 3.5 | 10.4 | 0.00 | 0.00 | 0.00 | 55 | 970.3 |
| 20260509211157 | 49 | 193 | 2.6 | 8.7 | 0.00 | 0.00 | 0.00 | 55 | 970.4 |
| 20260509210657 | 49 | 226 | 3.5 | 8.7 | 0.00 | 0.00 | 0.00 | 55 | 970.5 |
| 20260509210157 | 49 | 229 | 3.5 | 9.6 | 0.00 | 0.00 | 0.00 | 55 | 970.4 |
| 20260509205657 | 49 | 234 | 3.5 | 16.5 | 0.00 | 0.00 | 0.00 | 55 | 970.4 |
| 20260509205157 | 49 | 187 | 3.5 | 16.5 | 0.00 | 0.00 | 0.00 | 55 | 970.4 |
| 20260509204657 | 49 | 214 | 2.6 | 10.4 | 0.00 | 0.00 | 0.00 | 56 | 970.6 |
| 20260509204157 | 49 | 195 | 3.5 | 8.7 | 0.00 | 0.00 | 0.00 | 55 | 970.6 |
| 20260509203657 | 49 | 260 | 3.5 | 11.3 | 0.00 | 0.00 | 0.00 | 55 | 970.6 |
| 20260509203127 | 49 | 288 | 3.5 | 11.3 | 0.00 | 0.00 | 0.00 | 55 | 970.6 |
| 20260509202626 | 49 | 233 | 3.5 | 11.3 | 0.00 | 0.00 | 0.00 | 54 | 970.6 |
| 20260509202126 | 49 | 266 | 2.6 | 7.0 | 0.00 | 0.00 | 0.00 | 55 | 970.8 |
| 20260509201626 | 49 | 235 | 2.6 | 7.8 | 0.00 | 0.00 | 0.00 | 55 | 970.8 |
| 20260509201056 | 49 | 256 | 2.6 | 7.8 | 0.00 | 0.00 | 0.00 | 55 | 970.8 |
| 20260509200556 | 49 | 264 | 2.6 | 7.8 | 0.00 | 0.00 | 0.00 | 55 | 970.8 |
| 20260509200056 | 50 | 268 | 2.6 | 7.8 | 0.00 | 0.00 | 0.00 | 56 | 970.9 |
| 20260509195556 | 49 | 298 | 3.5 | 7.8 | 0.00 | 0.00 | 0.00 | 55 | 970.9 |
| 20260509195026 | 50 | 210 | 3.5 | 10.4 | 0.00 | 0.00 | 0.00 | 55 | 971.0 |
| 20260509194456 | 50 | 240 | 4.3 | 10.4 | 0.00 | 0.00 | 0.00 | 56 | 970.9 |
| 20260509193956 | 50 | 190 | 4.3 | 9.6 | 0.00 | 0.00 | 0.00 | 56 | 970.9 |
| 20260509193456 | 50 | 175 | 4.3 | 9.6 | 0.00 | 0.00 | 0.00 | 56 | 970.9 |
| 20260509192956 | 50 | 231 | 4.3 | 10.4 | 0.00 | 0.00 | 0.00 | 56 | 971.1 |
| 20260509192426 | 50 | 224 | 4.3 | 10.4 | 0.00 | 0.00 | 0.00 | 55 | 970.9 |
| 20260509191926 | 50 | 226 | 4.3 | 8.7 | 0.00 | 0.00 | 0.00 | 54 | 971.0 |
| 20260509191356 | 51 | 234 | 4.3 | 17.4 | 0.00 | 0.00 | 0.00 | 53 | 971.0 |
| 20260509190856 | 51 | 179 | 5.2 | 17.4 | 0.00 | 0.00 | 0.00 | 53 | 971.0 |
| 20260509190356 | 51 | 259 | 4.3 | 15.6 | 0.00 | 0.00 | 0.00 | 52 | 970.9 |
| 20260509185856 | 51 | 240 | 4.3 | 9.6 | 0.00 | 0.00 | 0.00 | 52 | 971.0 |
| 20260509185326 | 51 | 266 | 3.5 | 12.2 | 0.00 | 0.00 | 0.00 | 53 | 971.0 |
| 20260509184826 | 50 | 227 | 4.3 | 13.0 | 0.00 | 0.00 | 0.00 | 53 | 970.9 |
| 20260509184326 | 50 | 228 | 4.3 | 13.0 | 0.00 | 0.00 | 0.00 | 55 | 971.2 |
| 20260509183826 | 50 | 67 | 4.3 | 8.7 | 0.00 | 0.00 | 0.00 | 56 | 971.2 |
| 20260509183326 | 50 | 28 | 3.5 | 8.7 | 0.00 | 0.00 | 0.00 | 56 | 971.1 |
| 20260509182826 | 50 | 21 | 2.6 | 5.2 | 0.00 | 0.00 | 0.00 | 58 | 971.0 |
| 20260509182326 | 50 | 270 | 3.5 | 5.2 | 0.00 | 0.00 | 0.00 | 59 | 971.1 |
| 20260509181756 | 50 | 15 | 3.5 | 5.2 | 0.00 | 0.00 | 0.00 | 58 | 971.1 |
| 20260509181256 | 50 | 14 | 2.6 | 4.3 | 0.00 | 0.00 | 0.00 | 58 | 971.2 |
| 20260509180755 | 51 | 12 | 0.9 | 3.5 | 0.00 | 0.00 | 0.00 | 57 | 971.2 |
| 20260509180255 | 51 | 44 | 0.0 | 2.6 | 0.00 | 0.00 | 0.00 | 57 | 971.4 |
| 20260509175755 | 51 | 308 | 0.0 | 1.7 | 0.00 | 0.00 | 0.00 | 58 | 971.2 |
| 20260509175255 | 51 | 128 | 0.0 | 1.7 | 0.00 | 0.00 | 0.00 | 58 | 971.3 |
| 20260509174755 | 51 | 91 | 0.0 | 2.6 | 0.00 | 0.00 | 0.00 | 58 | 971.4 |
| 20260509174255 | 51 | 226 | 0.9 | 3.5 | 0.00 | 0.00 | 0.00 | 59 | 971.3 |
| 20260509173725 | 51 | 70 | 0.9 | 3.5 | 0.00 | 0.00 | 0.00 | 59 | 971.4 |
| 20260509173225 | 51 | 98 | 0.9 | 4.3 | 0.00 | 0.00 | 0.00 | 60 | 971.6 |
| 20260509172655 | 51 | 46 | 1.7 | 4.3 | 0.00 | 0.00 | 0.00 | 59 | 971.7 |
| 20260509172155 | 51 | 134 | 1.7 | 4.3 | 0.00 | 0.00 | 0.00 | 59 | 971.7 |
| 20260509171655 | 51 | 131 | 1.7 | 5.2 | 0.00 | 0.00 | 0.00 | 60 | 971.7 |
| 20260509171155 | 51 | 158 | 1.7 | 5.2 | 0.00 | 0.00 | 0.00 | 59 | 971.8 |
| 20260509170655 | 51 | 159 | 1.7 | 5.2 | 0.00 | 0.00 | 0.00 | 59 | 971.9 |
| 20260509170155 | 51 | 203 | 0.9 | 4.3 | 0.00 | 0.00 | 0.00 | 60 | 971.9 |
| 20260509165655 | 51 | 317 | 0.9 | 4.3 | 0.00 | 0.00 | 0.00 | 59 | 971.9 |
| 20260509165155 | 51 | 358 | 0.9 | 4.3 | 0.00 | 0.00 | 0.00 | 60 | 972.0 |
| 20260509164655 | 51 | 67 | 1.7 | 6.1 | 0.00 | 0.00 | 0.00 | 59 | 972.0 |
| 20260509164155 | 50 | 30 | 1.7 | 8.7 | 0.00 | 0.00 | 0.00 | 59 | 972.1 |
| 20260509163655 | 50 | 130 | 2.6 | 9.6 | 0.00 | 0.00 | 0.00 | 58 | 972.0 |
| 20260509163155 | 50 | 135 | 2.6 | 9.6 | 0.00 | 0.00 | 0.00 | 59 | 972.1 |
| 20260509162655 | 51 | 36 | 1.7 | 6.1 | 0.00 | 0.00 | 0.00 | 58 | 972.1 |
| 20260509162125 | 51 | 103 | 2.6 | 7.0 | 0.00 | 0.00 | 0.00 | 57 | 972.2 |
| 20260509161625 | 51 | 163 | 2.6 | 10.4 | 0.00 | 0.00 | 0.00 | 56 | 972.1 |
| 20260509161055 | 51 | 155 | 3.5 | 10.4 | 0.00 | 0.00 | 0.00 | 55 | 972.2 |
| 20260509160555 | 51 | 166 | 2.6 | 7.8 | 0.00 | 0.00 | 0.00 | 56 | 972.3 |
| 20260509160055 | 52 | 203 | 3.5 | 8.7 | 0.00 | 0.00 | 0.00 | 55 | 972.4 |
| 20260509155555 | 52 | 162 | 3.5 | 10.4 | 0.00 | 0.00 | 0.00 | 55 | 972.5 |
| 20260509155055 | 52 | 171 | 4.3 | 11.3 | 0.00 | 0.00 | 0.00 | 54 | 972.6 |
| 20260509154555 | 52 | 166 | 4.3 | 12.2 | 0.00 | 0.00 | 0.00 | 53 | 972.6 |
| 20260509154055 | 52 | 127 | 5.2 | 12.2 | 0.00 | 0.00 | 0.00 | 51 | 972.5 |
| 20260509153555 | 52 | 132 | 4.3 | 9.6 | 0.00 | 0.00 | 0.00 | 51 | 972.6 |
| 20260509153025 | 53 | 188 | 4.3 | 11.3 | 0.00 | 0.00 | 0.00 | 50 | 972.6 |
| 20260509152525 | 53 | 157 | 4.3 | 11.3 | 0.00 | 0.00 | 0.00 | 48 | 972.5 |
| 20260509152025 | 53 | 152 | 5.2 | 11.3 | 0.00 | 0.00 | 0.00 | 47 | 972.4 |
| 20260509151525 | 53 | 176 | 5.2 | 9.6 | 0.00 | 0.00 | 0.00 | 48 | 972.6 |
| 20260509150955 | 53 | 164 | 4.3 | 9.6 | 0.00 | 0.00 | 0.00 | 47 | 972.4 |
| 20260509150425 | 53 | 181 | 3.5 | 9.6 | 0.00 | 0.00 | 0.00 | 48 | 972.6 |
| 20260509145924 | 53 | 215 | 3.5 | 9.6 | 0.00 | 0.00 | 0.00 | 48 | 972.7 |
| 20260509145355 | 53 | 230 | 3.5 | 7.0 | 0.00 | 0.00 | 0.00 | 47 | 972.7 |
| 20260509144854 | 53 | 270 | 3.5 | 7.0 | 0.00 | 0.00 | 0.00 | 47 | 972.7 |
| 20260509144354 | 53 | 246 | 3.5 | 9.6 | 0.00 | 0.00 | 0.00 | 47 | 972.8 |
| 20260509143854 | 53 | 200 | 4.3 | 10.4 | 0.00 | 0.00 | 0.00 | 47 | 972.8 |
| 20260509143354 | 53 | 173 | 4.3 | 11.3 | 0.00 | 0.00 | 0.00 | 47 | 972.7 |
| 20260509142854 | 53 | 248 | 3.5 | 11.3 | 0.00 | 0.00 | 0.00 | 47 | 972.8 |
| 20260509142354 | 54 | 222 | 3.5 | 10.4 | 0.00 | 0.00 | 0.00 | 47 | 973.0 |
| 20260509141854 | 54 | 237 | 3.5 | 10.4 | 0.00 | 0.00 | 0.00 | 46 | 973.0 |
| 20260509141354 | 54 | 246 | 4.3 | 11.3 | 0.00 | 0.00 | 0.00 | 47 | 973.0 |
| 20260509140854 | 54 | 262 | 5.2 | 13.0 | 0.00 | 0.00 | 0.00 | 46 | 973.0 |
| 20260509140324 | 54 | 236 | 5.2 | 13.0 | 0.00 | 0.00 | 0.00 | 47 | 973.0 |
| 20260509135824 | 55 | 252 | 5.2 | 14.8 | 0.00 | 0.00 | 0.00 | 47 | 973.2 |
| 20260509135324 | 55 | 255 | 5.2 | 19.1 | 0.00 | 0.00 | 0.00 | 46 | 973.3 |
| 20260509134824 | 55 | 265 | 5.2 | 19.1 | 0.00 | 0.00 | 0.00 | 46 | 973.3 |
| 20260509134324 | 54 | 297 | 4.3 | 12.2 | 0.00 | 0.00 | 0.00 | 48 | 973.4 |
| 20260509133754 | 54 | 172 | 4.3 | 12.2 | 0.00 | 0.00 | 0.00 | 47 | 973.3 |
| 20260509133254 | 54 | 249 | 4.3 | 10.4 | 0.00 | 0.00 | 0.00 | 48 | 973.7 |
| 20260509132724 | 54 | 207 | 4.3 | 13.9 | 0.00 | 0.00 | 0.00 | 48 | 973.7 |
| 20260509132224 | 54 | 218 | 4.3 | 13.9 | 0.00 | 0.00 | 0.00 | 47 | 973.6 |
| 20260509131724 | 54 | 233 | 4.3 | 13.9 | 0.00 | 0.00 | 0.00 | 48 | 973.7 |
| 20260509131154 | 54 | 192 | 4.3 | 10.4 | 0.00 | 0.00 | 0.00 | 48 | 973.8 |
| 20260509130654 | 54 | 255 | 4.3 | 17.4 | 0.00 | 0.00 | 0.00 | 47 | 973.9 |
| 20260509130154 | 54 | 206 | 6.1 | 17.4 | 0.00 | 0.00 | 0.00 | 47 | 973.9 |
| 20260509125624 | 54 | 222 | 6.1 | 13.0 | 0.00 | 0.00 | 0.00 | 46 | 974.0 |
| 20260509125124 | 55 | 201 | 4.3 | 12.2 | 0.00 | 0.00 | 0.00 | 47 | 974.0 |
| 20260509124624 | 55 | 202 | 4.3 | 8.7 | 0.00 | 0.00 | 0.00 | 48 | 974.1 |
| 20260509124054 | 55 | 286 | 4.3 | 17.4 | 0.00 | 0.00 | 0.00 | 47 | 974.1 |
| 20260509123554 | 55 | 208 | 5.2 | 24.3 | 0.00 | 0.00 | 0.00 | 47 | 974.1 |
| 20260509123054 | 55 | 243 | 5.2 | 24.3 | 0.00 | 0.00 | 0.00 | 45 | 974.0 |
| 20260509122554 | 55 | 255 | 4.3 | 12.2 | 0.00 | 0.00 | 0.00 | 48 | 974.2 |
| 20260509122024 | 55 | 265 | 5.2 | 20.0 | 0.00 | 0.00 | 0.00 | 47 | 974.1 |
| 20260509121524 | 54 | 237 | 6.1 | 20.0 | 0.00 | 0.00 | 0.00 | 47 | 974.3 |
| 20260509121024 | 54 | 229 | 6.1 | 20.9 | 0.00 | 0.00 | 0.00 | 48 | 974.3 |
| 20260509120454 | 54 | 202 | 6.1 | 20.9 | 0.00 | 0.00 | 0.00 | 48 | 974.3 |
| 20260509115954 | 54 | 204 | 6.1 | 21.7 | 0.00 | 0.00 | 0.00 | 48 | 974.3 |
| 20260509115424 | 54 | 219 | 6.1 | 21.7 | 0.00 | 0.00 | 0.00 | 48 | 974.3 |
| 20260509114924 | 54 | 201 | 6.1 | 18.2 | 0.00 | 0.00 | 0.00 | 48 | 974.3 |
| 20260509114423 | 54 | 198 | 5.2 | 15.6 | 0.00 | 0.00 | 0.00 | 47 | 974.4 |
| 20260509113924 | 55 | 254 | 4.3 | 15.6 | 0.00 | 0.00 | 0.00 | 48 | 974.4 |
| 20260509113423 | 55 | 269 | 4.3 | 14.8 | 0.00 | 0.00 | 0.00 | 47 | 974.4 |
| 20260509112853 | 54 | 309 | 5.2 | 15.6 | 0.00 | 0.00 | 0.00 | 45 | 974.4 |
| 20260509112353 | 55 | 143 | 5.2 | 15.6 | 0.00 | 0.00 | 0.00 | 46 | 974.4 |
| 20260509111853 | 55 | 294 | 6.1 | 19.1 | 0.00 | 0.00 | 0.00 | 45 | 974.4 |
| 20260509111323 | 55 | 21 | 6.1 | 19.1 | 0.00 | 0.00 | 0.00 | 45 | 974.4 |
| 20260509110823 | 55 | 174 | 5.2 | 19.1 | 0.00 | 0.00 | 0.00 | 46 | 974.7 |